DW0000 Weather Reports


Display with metric or nautical units.
time (UTC)temp
F
wind
direction
speed
MPH
gust
MPH
rain 1hr
in
rain 24hr
in
rain mn
in
humidity
%
barometer
mb
20260906095506 61 324 18.0 33.0 0.00 0.00 0.00 88 1007.6
20260906094507 61 320 17.0 30.0 0.00 0.00 0.00 88 1007.5
20260906092006 61 320 25.0 38.0 0.00 0.00 0.00 88 1007.8
20260906091507 61 314 26.0 36.0 0.00 0.00 0.00 88 1007.8
20260906091006 61 316 24.0 37.0 0.00 0.00 0.00 88 1008.1
20260906090007 61 313 30.0 41.0 0.00 0.00 0.00 88 1007.9
20260906085006 61 313 30.0 39.0 0.00 0.00 0.00 88 1008.0
20260906083508 61 320 26.0 38.0 0.00 0.00 0.00 88 1008.3
20260906081506 61 317 24.0 79.0 0.00 0.00 0.00 89 1008.4
20260906081008 61 314 21.0 33.0 0.00 0.00 0.00 90 1008.3
20260906075507 60 320 25.0 36.0 0.00 0.00 0.00 90 1008.5
20260906074006 60 317 24.0 31.0 0.00 0.00 0.00 92 1008.6
20260906073507 60 317 25.0 35.0 0.00 0.00 0.00 92 1008.9
20260906072006 60 320 25.0 38.0 0.00 0.00 0.00 93 1009.1
20260906071507 60 321 29.0 39.0 0.00 0.00 0.00 93 1009.0
20260906071006 59 316 30.0 39.0 0.00 0.00 0.00 93 1009.1
20260906070506 59 319 32.0 45.0 0.00 0.00 0.00 93 1009.1
20260906070007 59 318 33.0 43.0 0.00 0.00 0.00 92 1009.3
20260906065505 59 315 31.0 40.0 0.00 0.00 0.00 92 1009.1
20260906064006 60 323 32.0 41.0 0.00 0.00 0.00 89 1009.5
20260906063006 60 319 31.0 41.0 0.00 0.00 0.00 88 1009.4
20260906062006 60 312 31.0 40.0 0.00 0.00 0.00 87 1009.5
20260906061505 60 321 32.0 46.0 0.00 0.00 0.00 86 1009.6
20260906060505 60 317 34.0 45.0 0.00 0.00 0.00 86 1009.5
20260906054005 60 322 22.0 40.0 0.00 0.00 0.00 84 1010.0
20260906052006 60 324 22.0 31.0 0.00 0.00 0.00 83 1010.2
20260906051506 60 308 26.0 33.0 0.00 0.00 0.00 82 1010.2
20260906051007 60 315 19.0 33.0 0.00 0.00 0.00 81 1010.3
20260906050507 60 325 23.0 36.0 0.00 0.00 0.00 80 1010.2
20260906045507 60 325 18.0 26.0 0.00 0.00 0.00 79 1010.3
20260906045006 60 321 16.0 24.0 0.00 0.00 0.00 79 1010.3
20260906044505 60 321 17.0 26.0 0.00 0.00 0.00 78 1010.5
20260906044006 60 316 21.0 28.0 0.00 0.00 0.00 78 1010.4
20260906041006 60 321 23.0 32.0 0.00 0.00 0.00 76 1010.9
20260906040005 61 327 25.0 32.0 0.00 0.00 0.00 76 1011.0
20260906035505 61 310 24.0 31.0 0.00 0.00 0.00 75 1011.2
20260906034505 62 318 24.0 35.0 0.00 0.00 0.00 75 1011.2
20260906034006 62 320 18.0 29.0 0.00 0.00 0.00 77 1011.4
20260906032505 61 316 30.0 39.0 0.00 0.00 0.00 77 1011.3
20260906031006 60 325 29.0 41.0 0.00 0.00 0.00 81 1011.9
20260906030005 61 326 22.0 36.0 0.00 0.00 0.00 81 1012.3
20260906025507 61 323 24.0 38.0 0.00 0.00 0.00 82 1012.2
20260906024505 61 318 27.0 36.0 0.00 0.00 0.00 80 1012.4
20260906023005 62 319 25.0 35.0 0.00 0.00 0.00 79 1012.4
20260906022505 62 321 25.0 33.0 0.00 0.00 0.00 80 1012.3
20260906022007 62 327 21.0 36.0 0.00 0.00 0.00 79 1012.4
20260906021505 62 323 20.0 28.0 0.00 0.00 0.00 82 1012.5
20260906015505 61 318 27.0 36.0 0.00 0.00 0.00 78 1012.7
20260906015005 61 320 23.0 31.0 0.00 0.00 0.00 78 1012.8
20260906014007 61 319 26.0 35.0 0.00 0.00 0.00 76 1012.7
20260906012506 62 320 24.0 36.0 0.00 0.00 0.00 75 1013.0
20260906012005 62 322 22.0 30.0 0.00 0.00 0.00 75 1013.2
20260906011505 62 324 22.0 32.0 0.00 0.00 0.00 76 1013.2
20260906011005 62 310 20.0 31.0 0.00 0.00 0.00 75 1013.1
20260906010506 62 319 26.0 37.0 0.00 0.00 0.00 74 1013.4
20260906010005 62 317 24.0 33.0 0.00 0.00 0.00 74 1013.2
20260906005505 62 317 25.0 31.0 0.00 0.00 0.00 74 1013.4
20260906004507 62 320 25.0 33.0 0.00 0.00 0.00 77 1013.8
20260906004005 62 331 26.0 35.0 0.00 0.00 0.00 76 1013.9
20260906003006 62 316 28.0 37.0 0.00 0.00 0.00 75 1014.0
20260906001005 61 320 24.0 32.0 0.00 0.00 0.00 76 1014.4
20260906000006 61 315 24.0 35.0 0.00 0.00 0.00 76 1014.7
20260905235005 61 324 22.0 31.0 0.00 0.00 0.00 76 1014.8
20260905234504 61 322 15.0 24.0 0.00 0.00 0.00 77 1014.9
20260905233505 61 322 24.0 32.0 0.00 0.00 0.00 76 1015.0
20260905233007 61 321 21.0 31.0 0.00 0.00 0.00 75 1015.0
20260905232507 61 314 20.0 28.0 0.00 0.00 0.00 75 1015.2
20260905232005 61 327 21.0 26.0 0.00 0.00 0.00 76 1015.2
20260905231505 61 313 18.0 30.0 0.00 0.00 0.00 76 1015.3
20260905231005 61 321 25.0 32.0 0.00 0.00 0.00 76 1015.2
20260905230506 62 319 24.0 32.0 0.00 0.00 0.00 77 1015.3
20260905224506 60 331 18.0 28.0 0.00 0.00 0.00 79 1015.5
20260905223505 60 325 25.0 31.0 0.00 0.00 0.00 79 1015.6
20260905223007 60 316 21.0 28.0 0.00 0.00 0.00 81 1015.7
20260905222505 59 317 20.0 26.0 0.00 0.00 0.00 80 1015.8
20260905222006 59 320 20.0 26.0 0.00 0.00 0.00 81 1016.0
20260905221506 59 319 18.0 24.0 0.00 0.00 0.00 81 1016.0
20260905221005 59 329 17.0 24.0 0.00 0.00 0.00 81 1016.0
20260905215005 60 325 14.0 22.0 0.00 0.00 0.00 81 1016.2
20260905214507 60 326 16.0 25.0 0.00 0.00 0.00 81 1016.4
20260905213006 60 323 17.0 23.0 0.00 0.00 0.00 82 1016.6
20260905212505 59 313 16.0 28.0 0.00 0.00 0.00 81 1016.7
20260905211506 59 327 17.0 24.0 0.00 0.00 0.00 82 1016.6
20260905205504 59 320 14.0 22.0 0.00 0.00 0.00 84 1016.7
20260905204505 58 322 13.0 20.0 0.00 0.00 0.00 85 1016.5
20260905204006 58 328 12.0 20.0 0.00 0.00 0.00 86 1016.9
20260905203505 57 314 16.0 22.0 0.00 0.00 0.00 86 1016.5
20260905202506 57 315 16.0 21.0 0.00 0.00 0.00 87 1016.6
20260905195506 56 319 18.0 22.0 0.00 0.00 0.00 89 1016.4
20260905195005 56 324 16.0 20.0 0.00 0.00 0.00 89 1016.5
20260905193504 55 319 16.0 21.0 0.00 0.00 0.00 90 1016.3
20260905193005 55 317 13.0 16.0 0.00 0.00 0.00 90 1016.4
20260905191505 55 318 10.0 13.0 0.00 0.00 0.00 90 1016.6
20260905191005 55 324 9.0 13.0 0.00 0.00 0.00 90 1016.5
20260905185505 55 335 9.0 13.0 0.00 0.00 0.00 91 1016.5
20260905184504 55 328 9.0 13.0 0.00 0.00 0.00 91 1016.3
20260905183005 54 344 7.0 12.0 0.00 0.00 0.00 91 1016.1
20260905182504 54 338 6.0 9.0 0.00 0.00 0.00 90 1016.1
20260905182005 54 336 6.0 10.0 0.00 0.00 0.00 90 1016.0
20260905181005 54 314 8.0 13.0 0.00 0.00 0.00 90 1015.9
20260905175505 54 334 7.0 12.0 0.00 0.00 0.00 90 1016.0
20260905174504 54 336 7.0 13.0 0.00 0.00 0.00 90 1016.1
20260905173504 53 319 10.0 14.0 0.00 0.00 0.00 90 1016.2
20260905172505 53 320 10.0 15.0 0.00 0.00 0.00 90 1016.1
20260905171504 53 312 12.0 15.0 0.00 0.00 0.00 90 1016.2
20260905171006 53 317 13.0 16.0 0.00 0.00 0.00 90 1015.9
20260905170504 53 316 12.0 15.0 0.00 0.00 0.00 90 1016.0
20260905165506 53 318 12.0 15.0 0.00 0.00 0.00 90 1015.9
20260905164006 53 314 10.0 15.0 0.00 0.00 0.00 90 1015.7
20260905163007 53 314 9.0 13.0 0.00 0.00 0.00 89 1015.6
20260905162506 53 312 9.0 13.0 0.00 0.00 0.00 89 1015.7
20260905161508 53 315 10.0 15.0 0.00 0.00 0.00 89 1015.6
20260905155007 53 312 5.0 8.0 0.00 0.00 0.00 89 1015.8
20260905154506 53 317 7.0 10.0 0.00 0.00 0.00 89 1015.7
20260905154008 53 320 6.0 10.0 0.00 0.00 0.00 89 1015.7
20260905153506 53 314 8.0 10.0 0.00 0.00 0.00 89 1015.7
20260905153007 53 317 10.0 13.0 0.00 0.00 0.00 89 1015.8
20260905152507 53 317 8.0 13.0 0.00 0.00 0.00 89 1015.8
20260905152006 53 314 11.0 15.0 0.00 0.00 0.00 89 1015.8
20260905151506 54 320 10.0 14.0 0.00 0.00 0.00 89 1015.9
20260905150506 54 315 10.0 16.0 0.00 0.00 0.00 90 1016.1
20260905150006 54 314 10.0 15.0 0.00 0.00 0.00 90 1016.0
20260905145507 54 318 12.0 15.0 0.00 0.00 0.00 90 1016.1
20260905144506 54 318 12.0 15.0 0.00 0.00 0.00 90 1016.2
20260905142508 53 308 12.0 15.0 0.00 0.00 0.00 90 1016.4
20260905134506 53 306 6.0 13.0 0.00 0.00 0.00 90 1017.2
20260905133506 53 296 6.0 16.0 0.00 0.00 0.00 90 1017.0
20260905133007 53 294 9.0 17.0 0.00 0.00 0.00 90 1017.1
20260905132506 53 283 10.0 20.0 0.00 0.00 0.00 90 1017.1
20260905132006 53 298 7.0 18.0 0.00 0.00 0.00 90 1017.1
20260905131006 53 298 7.0 13.0 0.00 0.00 0.00 89 1017.1
20260905130506 53 297 6.0 12.0 0.00 0.00 0.00 88 1017.3
20260905125006 53 288 6.0 14.0 0.00 0.00 0.00 88 1017.5
20260905123507 54 305 6.0 13.0 0.00 0.00 0.00 87 1017.3
20260905122007 54 268 5.0 12.0 0.00 0.00 0.00 87 1017.6
20260905121006 54 291 8.0 15.0 0.00 0.00 0.00 86 1017.6
20260905120506 54 294 7.0 14.0 0.00 0.00 0.00 86 1017.7
20260905120007 54 273 5.0 13.0 0.00 0.00 0.00 85 1017.8
20260905115006 54 270 7.0 15.0 0.00 0.00 0.00 85 1017.8
20260905114506 54 255 10.0 18.0 0.00 0.00 0.00 85 1017.9
20260905113006 54 273 7.0 13.0 0.00 0.00 0.00 85 1018.2
20260905112506 54 260 9.0 15.0 0.00 0.00 0.00 84 1017.9
20260905112007 54 253 10.0 16.0 0.00 0.00 0.00 84 1018.0
20260905111505 55 263 7.0 18.0 0.00 0.00 0.00 84 1018.1
20260905110506 54 258 12.0 18.0 0.00 0.00 0.00 85 1018.1
20260905110007 54 254 12.0 21.0 0.00 0.00 0.00 85 1018.2
20260905105006 53 250 12.0 20.0 0.00 0.00 0.00 86 1018.2
20260905104507 53 260 12.0 18.0 0.00 0.00 0.00 86 1018.3
20260905103506 53 286 6.0 13.0 0.00 0.00 0.00 86 1018.4
20260905103006 53 262 7.0 12.0 0.00 0.00 0.00 85 1018.5
20260905102507 53 259 7.0 14.0 0.00 0.00 0.00 85 1018.3
20260905102005 52 268 6.0 13.0 0.00 0.00 0.00 85 1018.1
20260905101506 52 262 7.0 13.0 0.00 0.00 0.00 84 1018.1
20260905101007 52 280 5.0 10.0 0.00 0.00 0.00 84 1018.1
20260905100506 53 299 6.0 13.0 0.00 0.00 0.00 84 1018.0